Location: Newark
(51.3318°N, 0.0053°E)
Time: 22:53:37
(UTC+00:00)

Envisat - Visible Passes

Search period start: 04 June 2023 00:00
Search period end: 14 June 2023 00:00
Orbit: 763 x 765 km, 98.2° (Epoch: 04 June)

Date Brightness Start Highest point End Pass type
(mag) Time Alt. Az. Time Alt. Az. Time Alt. Az.
05 Jun 5.2 02:53:49 10° NE 02:57:48 23° E 03:01:46 10° SE visible
06 Jun 5.8 02:18:40 10° ENE 02:20:08 11° E 02:21:36 10° E visible
08 Jun 5.5 02:41:45 10° NE 02:45:14 18° E 02:48:41 10° SE visible
11 Jun 5.6 02:29:51 10° NE 02:32:37 14° E 02:35:22 10° ESE visible
13 Jun 5.2 02:53:39 10° NE 02:57:40 23° E 03:01:39 10° SE visible
